This is the latest recevied weather packets stored in our database for station/object KG5APU. If no packets are shown the sender has not sent any weather packets the latest 10 day(s).
| Time | Temp. | Humidity | Pressure | Rain* | Wind** | Luminosity | Snow |
|---|---|---|---|---|---|---|---|
| 1787799100 | 31.67° C | 53% | 1014.1 hPa | 0 mm | - | 0 W/m² | - |
| 1787798495 | 32.22° C | 52% | 1013.7 hPa | 0 mm | - | 0 W/m² | - |
| 1787797895 | 32.22° C | 51% | 1013.5 hPa | 0 mm | - | 0 W/m² | - |
| 1787797291 | 32.78° C | 50% | 1013.4 hPa | 0 mm | - | 0 W/m² | - |
| 1787796686 | 32.78° C | 50% | 1013.2 hPa | 0 mm | - | 0 W/m² | - |
| 1787796083 | 32.78° C | 48% | 1013 hPa | 0 mm | - | 0 W/m² | - |
| 1787795480 | 32.78° C | 48% | 1012.9 hPa | 0 mm | - | 0 W/m² | - |
| 1787794879 | 32.78° C | 47% | 1012.8 hPa | 0 mm | - | 0 W/m² | - |
| 1787794276 | 33.33° C | 47% | 1012.6 hPa | 0 mm | - | 0 W/m² | - |
| 1787793674 | 33.89° C | 45% | 1012.7 hPa | 0 mm | - | 0 W/m² | - |
| 1787793068 | 34.44° C | 44% | 1012.4 hPa | 0 mm | - | 1 W/m² | - |
| 1787792468 | 35° C | 42% | 1012.5 hPa | 0 mm | - | 7 W/m² | - |
| 1787791864 | 35.56° C | 42% | 1012.4 hPa | 0 mm | - | 18 W/m² | - |
| 1787791261 | 35.56° C | 41% | 1012.3 hPa | 0 mm | - | 30 W/m² | - |
| 1787790657 | 36.11° C | 41% | 1012 hPa | 0 mm | - | 39 W/m² | - |
| 1787790053 | 36.11° C | 42% | 1012.4 hPa | 0 mm | - | 50 W/m² | - |
| 1787789449 | 35.56° C | 43% | 1012.3 hPa | 0 mm | - | 48 W/m² | - |
| 1787788848 | 35.56° C | 42% | 1012.3 hPa | 0 mm | - | 32 W/m² | - |
| 1787788248 | 35.56° C | 43% | 1012.2 hPa | 0 mm | - | 39 W/m² | - |
| 1787787644 | 35.56° C | 43% | 1012.3 hPa | 0 mm | - | 41 W/m² | - |
| 1787787043 | 36.11° C | 42% | 1012.4 hPa | 0 mm | - | 30 W/m² | - |
| 1787786444 | 36.67° C | 39% | 1012.2 hPa | 0 mm | - | 28 W/m² | - |
| 1787785841 | 37.78° C | 38% | 1012.1 hPa | 0 mm | - | 39 W/m² | - |
| 1787785236 | 37.78° C | 36% | 1012.1 hPa | 0 mm | - | 214 W/m² | - |
| 1787784635 | 37.78° C | 38% | 1012.1 hPa | 0 mm | - | 242 W/m² | - |
* Rain latest hour (hover to see other rain measurements)
** Current wind speed in m/s (hover to see current wind gust speed)